EW3722 Weather Reports


time (UTC)temp
C
wind
direction
speed
KPH
gust
KPH
rain 1hr
cm
rain 24hr
cm
rain mn
cm
humidity
%
barometer
mb
20260503211517 13 0.0 0.0 0.00 0.00 0.00 64 1018.5
20260503210517 13 0.0 6.4 0.00 0.00 0.00 64 1018.6
20260503205517 13 0.0 0.0 0.00 0.00 0.00 64 1018.6
20260503204517 13 0.0 0.0 0.00 0.00 0.00 62 1018.5
20260503203517 13 0.0 0.0 0.00 0.00 0.00 61 1018.1
20260503202517 13 0.0 0.0 0.00 0.00 0.00 59 1018.1
20260503201517 13 0.0 0.0 0.00 0.00 0.00 58 1018.0
20260503200517 13 0.0 0.0 0.00 0.00 0.00 57 1018.0
20260503195517 13 0.0 0.0 0.00 0.00 0.00 56 1017.9
20260503194517 14 0.0 0.0 0.00 0.00 0.00 54 1017.9
20260503193517 14 0.0 0.0 0.00 0.00 0.00 53 1017.7
20260503192517 14 0.0 0.0 0.00 0.00 0.00 52 1017.3
20260503191517 15 0.0 0.0 0.00 0.00 0.00 51 1017.3
20260503190517 15 0.0 3.2 0.00 0.00 0.00 49 1017.5
20260503185517 16 0.0 0.0 0.00 0.00 0.00 48 1017.3
20260503184517 16 0.0 0.0 0.00 0.00 0.00 46 1017.2
20260503183517 16 0.0 6.4 0.00 0.00 0.00 44 1017.1
20260503181517 17 0.0 0.0 0.00 0.00 0.00 44 1016.9
20260503180517 18 0.0 0.0 0.00 0.00 0.00 41 1017.2
20260503175517 19 0.0 0.0 0.00 0.00 0.00 40 1016.7
20260503174517 20 0.0 0.0 0.00 0.00 0.00 37 1016.9
20260503173517 20 0.0 0.0 0.00 0.00 0.00 38 1016.7
20260503172537 21 0.0 0.0 0.00 0.00 0.00 32 1016.9
20260503171517 21 0.0 0.0 0.00 0.00 0.00 30 1016.8
20260503170516 21 0.0 0.0 0.00 0.00 0.00 29 1017.0
20260503150516 23 0.0 3.2 0.00 0.00 0.00 29 1017.9
20260503130538 24 0.0 3.2 0.00 0.00 0.00 28 1018.6
20260503110538 22 0.0 6.4 0.00 0.00 0.00 37 1019.1
20260503081517 17 0.0 0.0 0.00 0.00 0.00 50 1020.5
20260503080517 17 0.0 0.0 0.00 0.00 0.00 49 1020.6
20260503072517 13 0.0 0.0 0.00 0.00 0.00 56 1021.1
20260503071537 13 0.0 0.0 0.00 0.00 0.00 58 1021.0
20260503070557 12 0.0 0.0 0.00 0.00 0.00 63 1020.8
20260503054517 6 0.0 0.0 0.00 0.00 0.00 85 1020.6
20260503053517 5 0.0 0.0 0.00 0.00 0.00 85 1020.7
20260503052517 5 0.0 0.0 0.00 0.00 0.00 84 1020.7
20260503051517 5 0.0 0.0 0.00 0.00 0.00 83 1020.8
20260503050517 5 0.0 0.0 0.00 0.00 0.00 83 1020.7
20260503045537 5 0.0 0.0 0.00 0.00 0.00 82 1020.5
20260503044537 5 0.0 0.0 0.00 0.00 0.00 82 1020.5
20260503043517 5 0.0 0.0 0.00 0.00 0.00 82 1020.5
20260503042537 5 0.0 0.0 0.00 0.00 0.00 82 1020.4
20260503041537 5 0.0 0.0 0.00 0.00 0.00 82 1020.4
20260503040517 5 0.0 0.0 0.00 0.00 0.00 81 1020.2
20260503034517 5 0.0 0.0 0.00 0.00 0.00 81 1020.2
20260503033517 5 0.0 0.0 0.00 0.00 0.00 80 1020.2
20260503032537 5 0.0 0.0 0.00 0.00 0.00 80 1020.3
20260503031621 5 0.0 0.0 0.00 0.00 0.00 79 1020.2
20260503031037 5 0.0 0.0 0.00 0.00 0.00 79 1020.2
20260503030036 5 0.0 0.0 0.00 0.00 0.00 78 1020.2
20260503025036 5 0.0 0.0 0.00 0.00 0.00 78 1020.4
20260503023016 6 0.0 0.0 0.00 0.00 0.00 76 1020.6
20260503022036 6 0.0 0.0 0.00 0.00 0.00 75 1020.5
20260503021036 6 0.0 0.0 0.00 0.00 0.00 75 1020.3
20260503020036 6 0.0 0.0 0.00 0.00 0.00 74 1020.3
20260503015016 6 0.0 0.0 0.00 0.00 0.00 74 1020.4
20260503014036 6 0.0 0.0 0.00 0.00 0.00 72 1020.4
20260503013016 7 0.0 0.0 0.00 0.00 0.00 71 1020.4
20260503012058 7 0.0 0.0 0.00 0.00 0.00 70 1020.6
20260503011058 7 0.0 0.0 0.00 0.00 0.00 70 1020.6
20260503010018 7 0.0 0.0 0.00 0.00 0.00 70 1020.7
20260503005018 7 0.0 0.0 0.00 0.00 0.00 69 1020.7
20260503004018 7 0.0 0.0 0.00 0.00 0.00 68 1020.8
20260503003018 7 0.0 0.0 0.00 0.00 0.00 68 1020.7
20260503002018 7 0.0 0.0 0.00 0.00 0.00 67 1020.7
20260503001018 7 0.0 0.0 0.00 0.00 0.00 66 1020.9
20260503000018 7 0.0 0.0 0.00 0.00 0.00 65 1021.1
20260502235018 8 0.0 0.0 0.00 0.00 0.00 64 1021.2
20260502234018 8 0.0 0.0 0.00 0.00 0.00 65 1021.3
20260502233018 8 0.0 0.0 0.00 0.00 0.00 64 1021.4
20260502232018 8 0.0 0.0 0.00 0.00 0.00 64 1021.4
20260502231018 8 0.0 0.0 0.00 0.00 0.00 64 1021.4
20260502230018 8 0.0 0.0 0.00 0.00 0.00 65 1021.3
20260502225018 8 0.0 0.0 0.00 0.00 0.00 65 1021.2
20260502224018 8 0.0 0.0 0.00 0.00 0.00 66 1021.0
20260502223018 8 0.0 0.0 0.00 0.00 0.00 65 1021.0
20260502222018 8 0.0 0.0 0.00 0.00 0.00 66 1021.0
20260502221018 8 0.0 0.0 0.00 0.00 0.00 65 1021.0
20260502220018 8 0.0 0.0 0.00 0.00 0.00 64 1021.0
20260502215017 9 0.0 0.0 0.00 0.00 0.00 63 1021.1
20260502214017 9 0.0 0.0 0.00 0.00 0.00 63 1021.2
20260502213016 9 0.0 0.0 0.00 0.00 0.00 62 1021.1